Terminal Aerodrome Forecast
Issued by NWS

Home | Current Version | Previous Version | Text Only | Print | Product List | Glossary On
Versions: 1 2 3 4 5 6 7 8 9 10 11 12 13 14 15 16 17 18
000
FTUS41 KPBZ 190500
TAFDUJ
TAF
KDUJ 190525Z 1906/2006 01005KT P6SM SCT060
     FM190800 VRB03KT 2SM BR SCT002
     FM191400 14005KT P6SM SKC=

USA.gov is the U.S. government's official web portal to all federal, state and local government web resources and services.